Content
SEND FEEDBACK

Daily
Averages
Monthly
Summary
United States of America

ST. LOUIS - SAINT LOUIS UNIVERSITY, MISSOURI


Home > North America > United States > Missouri
Elevation: 580 feet     Latitude: 38 38N     Longitude: 090 14W

WEATHER
 
SELECT A DAY
Number of Records: 186,071;   Date Range: 1/1/95 - 7/27/14
 
SHARE

PRINT THIS DATA

[ ← Previous Day ]
WEATHER ALMANAC - FEBRUARY 16, 2013
[ Next Day → ]
[ °C ]   °F
Weather ElementAverageHighLow
Temperature28 °F36 °F (2:53 pm)21.9 °F (11:53 pm)
Dewpoint12.3 °F16 °F (9:53 pm)8.1 °F (3:53 pm)
Humidity53.4 %78 % (11:53 pm)31 % (3:53 pm)
Barometer30.24 in30.29 in (7:53 am)30.19 in (3:53 pm)
Wind Speed7.4 mph13.8 mph (2:53 am)
Wind Gust18.4 mph (12:53 pm)
Weather ElementAverage
Visibility10 mi
Wind DirectionWSW (257.3 °)

Weather ElementTotal
Precipitation---
Heating Degree Days36.1 (Base 65)
Averaged from 22 records on February 16, 2013
WEATHER CONDITIONS BREAKOUT
WIND DIRECTION BREAKOUT
WEATHER BY HOUR - FEBRUARY 16, 2013
[ °C ]   °F
Local TimeTemperatureDewpointHumidityBarometerVisibilityWind DirectionWind SpeedGust SpeedPrecipitationEventsConditions
1:53 AM26.1 °F14.0 °F60 %30.25 in10.0 miNNW (340°)10.4 mphClear
2:53 AM26.1 °F14.0 °F60 %30.26 in10.0 miNNW (340°)13.8 mphClear
3:53 AM25.0 °F12.9 °F60 %30.25 in10.0 miNNW (330°)9.2 mphClear
4:53 AM23.0 °F12.9 °F65 %30.26 in10.0 miNNW (330°)6.9 mphClear
6:53 AM23.0 °F12.0 °F63 %30.27 in10.0 miNNW (340°)11.5 mphClear
7:53 AM24.1 °F12.9 °F62 %30.29 in10.0 miNW (320°)10.4 mphClear
8:53 AM25.0 °F10.9 °F55 %30.29 in10.0 miNW (310°)11.5 mphClear
9:53 AM26.1 °F10.0 °F51 %30.29 in10.0 miNW (310°)10.4 mphClear
10:53 AM28.0 °F12.9 °F53 %30.29 in10.0 miWNW (290°)10.4 mphClear
11:53 AM30.0 °F12.0 °F47 %30.27 in10.0 miWest (280°)10.4 mphClear
12:53 PM33.1 °F10.9 °F40 %30.25 in10.0 miWNW (290°)10.4 mph18.4 mphClear
1:53 PM35.1 °F10.9 °F37 %30.22 in10.0 miNNW (340°)6.9 mphClear
2:53 PM36.0 °F9.0 °F33 %30.20 in10.0 miWNW (290°)6.9 mph18.4 mphClear
3:53 PM36.0 °F8.1 °F31 %30.19 in10.0 miWNW (290°)6.9 mphClear
4:53 PM35.1 °F9.0 °F34 %30.19 in10.0 miNW (310°)11.5 mphPartly Cloudy
5:53 PM32.0 °F9.0 °F38 %30.19 in10.0 miWNW (300°)6.9 mphClear
6:53 PM28.9 °F12.0 °F49 %30.21 in10.0 miNNW (330°)3.5 mphClear
7:53 PM28.0 °F14.0 °F56 %30.21 in10.0 miNW (320°)5.8 mphClear
8:53 PM26.1 °F15.1 °F63 %30.22 in10.0 miCalmClear
9:53 PM24.1 °F16.0 °F71 %30.22 in10.0 miCalmClear
10:53 PM24.1 °F15.1 °F69 %30.22 in10.0 miCalmClear
11:53 PM21.9 °F16.0 °F78 %30.21 in10.0 miCalmClear
Hourly data recorded from KCPS, located miles away from St. Louis - Saint Louis University, Missouri







STORIES FROM OUR PARTNERS